• In United Kingdom
  • List of Countries
  • For 7 days
  • Water Temperature
  • Satellite Maps
  • Weather Map
  • Weather Widgets
  • user-avatar
    Login

    Hourly Weather Salta

    Today, 22 November, Wednesday

    Time Temperature Precipitation Wind Pressure Humidity
    00:00 +16°C° 0 mm 1 mps 652 mmHg 79%
    01:00 +16°C° 0 mm 1 mps 652 mmHg 80%
    02:00 +16°C° 0 mm 1 mps 651 mmHg 80%
    03:00 +15°C° 0 mm 1 mps 651 mmHg 80%
    04:00 +15°C° 0 mm 1 mps 651 mmHg 80%
    05:00 +15°C° 0 mm 1 mps 651 mmHg 81%
    06:00 +16°C° 0 mm 1 mps 651 mmHg 74%
    07:00 +19°C° 0 mm 1 mps 652 mmHg 67%
    08:00 +20°C° 0 mm 1 mps 653 mmHg 60%
    09:00 +20°C° 0 mm 2 mps 652 mmHg 59%
    10:00 +21°C° 0 mm 2 mps 652 mmHg 59%
    11:00 +21°C° 0 mm 3 mps 652 mmHg 58%
    12:00 +21°C° 0.1 mm 3 mps 651 mmHg 59%
    13:00 +22°C° 0.1 mm 3 mps 650 mmHg 59%
    14:00 +22°C° 0.1 mm 3 mps 649 mmHg 59%
    15:00 +22°C° 0 mm 3 mps 649 mmHg 59%
    16:00 +22°C° 0 mm 3 mps 648 mmHg 59%
    17:00 +22°C° 0 mm 3 mps 648 mmHg 59%
    18:00 +21°C° 0 mm 2 mps 648 mmHg 63%
    19:00 +19°C° 0 mm 2 mps 649 mmHg 68%
    20:00 +18°C° 0 mm 2 mps 649 mmHg 72%
    21:00 +19°C° 0 mm 1 mps 649 mmHg 73%
    22:00 +18°C° 0 mm 1 mps 650 mmHg 74%
    23:00 +18°C° 0 mm 1 mps 650 mmHg 74%

    Tomorrow, 23 November, Thursday

    Time Temperature Precipitation Wind Pressure Humidity
    00:00 +16°C° 0 mm 1 mps 650 mmHg 74%
    01:00 +16°C° 0 mm 1 mps 649 mmHg 75%
    02:00 +16°C° 0 mm 1 mps 649 mmHg 75%
    03:00 +16°C° 0 mm 1 mps 649 mmHg 73%
    04:00 +15°C° 0 mm 1 mps 649 mmHg 72%
    05:00 +15°C° 0 mm 1 mps 649 mmHg 71%
    06:00 +19°C° 0 mm 1 mps 650 mmHg 60%
    07:00 +21°C° 0 mm 1 mps 651 mmHg 50%
    08:00 +24°C° 0 mm 1 mps 652 mmHg 40%
    09:00 +26°C° 0 mm 2 mps 652 mmHg 35%
    10:00 +28°C° 0 mm 3 mps 652 mmHg 31%
    11:00 +29°C° 0 mm 3 mps 652 mmHg 26%
    12:00 +30°C° 0 mm 3 mps 652 mmHg 25%
    13:00 +32°C° 0 mm 4 mps 651 mmHg 24%
    14:00 +33°C° 0 mm 4 mps 651 mmHg 23%
    15:00 +33°C° 0 mm 4 mps 650 mmHg 25%
    16:00 +32°C° 0 mm 4 mps 649 mmHg 27%
    17:00 +30°C° 0 mm 4 mps 648 mmHg 29%
    18:00 +28°C° 0 mm 3 mps 648 mmHg 37%
    19:00 +25°C° 0 mm 3 mps 648 mmHg 45%
    20:00 +23°C° 0 mm 2 mps 648 mmHg 53%
    21:00 +22°C° 0 mm 1 mps 649 mmHg 55%
    22:00 +22°C° 0 mm 1 mps 649 mmHg 58%
    23:00 +21°C° 0 mm 1 mps 650 mmHg 60%

    Day after tomorrow, 24 November, Friday

    Time Temperature Precipitation Wind Pressure Humidity
    00:00 +21°C° 0 mm 1 mps 649 mmHg 61%
    01:00 +21°C° 0 mm 1 mps 649 mmHg 61%
    02:00 +20°C° 0 mm 1 mps 648 mmHg 62%
    03:00 +20°C° 0 mm 1 mps 648 mmHg 61%
    04:00 +20°C° 0 mm 1 mps 648 mmHg 61%
    05:00 +20°C° 0 mm 1 mps 648 mmHg 60%
    06:00 +22°C° 0 mm 1 mps 649 mmHg 52%
    07:00 +24°C° 0 mm 1 mps 650 mmHg 44%
    08:00 +27°C° 0 mm 2 mps 651 mmHg 36%
    09:00 +28°C° 0 mm 2 mps 651 mmHg 33%
    10:00 +30°C° 0 mm 3 mps 651 mmHg 30%
    11:00 +33°C° 0 mm 3 mps 651 mmHg 27%
    12:00 +34°C° 0 mm 4 mps 650 mmHg 26%
    13:00 +35°C° 0 mm 4 mps 650 mmHg 26%
    14:00 +36°C° 0 mm 4 mps 649 mmHg 25%
    15:00 +35°C° 0 mm 4 mps 648 mmHg 27%
    16:00 +34°C° 0 mm 4 mps 648 mmHg 29%
    17:00 +34°C° 0 mm 4 mps 647 mmHg 31%
    18:00 +31°C° 0.2 mm 3 mps 647 mmHg 39%
    19:00 +28°C° 0.2 mm 2 mps 647 mmHg 47%
    20:00 +26°C° 0.2 mm 1 mps 648 mmHg 55%
    21:00 +25°C° 0.2 mm 1 mps 648 mmHg 56%
    22:00 +25°C° 0.2 mm 1 mps 649 mmHg 57%
    23:00 +24°C° 0.2 mm 1 mps 649 mmHg 57%

    25 November, Saturday

    Time Temperature Precipitation Wind Pressure Humidity
    00:00 +24°C° 0 mm 1 mps 649 mmHg 58%
    01:00 +24°C° 0 mm 2 mps 649 mmHg 58%
    02:00 +23°C° 0 mm 2 mps 649 mmHg 58%
    03:00 +23°C° 0 mm 2 mps 649 mmHg 62%
    04:00 +22°C° 0 mm 1 mps 650 mmHg 66%
    05:00 +21°C° 0 mm 1 mps 650 mmHg 69%
    06:00 +21°C° 0 mm 2 mps 651 mmHg 66%
    07:00 +23°C° 0 mm 2 mps 652 mmHg 62%
    08:00 +24°C° 0 mm 2 mps 653 mmHg 59%
    09:00 +25°C° 0 mm 3 mps 653 mmHg 55%
    10:00 +27°C° 0 mm 3 mps 653 mmHg 51%
    11:00 +28°C° 0 mm 3 mps 653 mmHg 47%
    12:00 +29°C° 0.1 mm 3 mps 652 mmHg 45%
    13:00 +29°C° 0.1 mm 4 mps 652 mmHg 44%
    14:00 +29°C° 0.1 mm 4 mps 651 mmHg 43%
    15:00 +29°C° 0 mm 4 mps 651 mmHg 43%
    16:00 +28°C° 0 mm 4 mps 650 mmHg 44%
    17:00 +28°C° 0 mm 4 mps 650 mmHg 45%
    18:00 +26°C° 0 mm 3 mps 650 mmHg 51%
    19:00 +25°C° 0 mm 2 mps 651 mmHg 57%
    20:00 +23°C° 0 mm 2 mps 651 mmHg 63%
    21:00 +23°C° 0 mm 1 mps 651 mmHg 66%
    22:00 +22°C° 0 mm 1 mps 651 mmHg 69%
    23:00 +21°C° 0 mm 1 mps 651 mmHg 72%

    26 November, Sunday

    Time Temperature Precipitation Wind Pressure Humidity
    00:00 +21°C° 0 mm 1 mps 651 mmHg 73%
    01:00 +20°C° 0 mm 1 mps 650 mmHg 73%
    02:00 +18°C° 0 mm 0 mps 650 mmHg 74%
    03:00 +18°C° 0 mm 0 mps 649 mmHg 75%
    04:00 +17°C° 0 mm 0 mps 649 mmHg 76%
    05:00 +17°C° 0 mm 0 mps 649 mmHg 78%
    06:00 +21°C° 0 mm 1 mps 650 mmHg 71%
    07:00 +23°C° 0 mm 1 mps 651 mmHg 64%
    08:00 +25°C° 0 mm 2 mps 652 mmHg 57%
    09:00 +26°C° 0 mm 2 mps 651 mmHg 52%
    10:00 +27°C° 0 mm 3 mps 651 mmHg 48%
    11:00 +29°C° 0 mm 3 mps 651 mmHg 43%
    12:00 +30°C° 0 mm 3 mps 650 mmHg 41%
    13:00 +30°C° 0 mm 4 mps 649 mmHg 40%
    14:00 +32°C° 0 mm 4 mps 648 mmHg 38%
    15:00 +32°C° 0 mm 4 mps 647 mmHg 39%
    16:00 +32°C° 0 mm 4 mps 647 mmHg 40%
    17:00 +30°C° 0 mm 4 mps 646 mmHg 41%
    18:00 +29°C° 0 mm 3 mps 647 mmHg 47%
    19:00 +27°C° 0 mm 2 mps 647 mmHg 53%
    20:00 +25°C° 0 mm 2 mps 647 mmHg 59%
    21:00 +24°C° 0 mm 1 mps 647 mmHg 60%
    22:00 +23°C° 0 mm 1 mps 648 mmHg 62%
    23:00 +23°C° 0 mm 1 mps 648 mmHg 63%

    27 November, Monday

    Time Temperature Precipitation Wind Pressure Humidity
    00:00 +22°C° 0 mm 1 mps 647 mmHg 63%
    01:00 +22°C° 0 mm 1 mps 647 mmHg 64%
    02:00 +21°C° 0 mm 1 mps 646 mmHg 64%
    03:00 +21°C° 0 mm 1 mps 646 mmHg 63%
    04:00 +21°C° 0 mm 1 mps 647 mmHg 63%
    05:00 +20°C° 0 mm 1 mps 647 mmHg 63%
    06:00 +23°C° 0 mm 1 mps 648 mmHg 55%
    07:00 +25°C° 0 mm 1 mps 649 mmHg 47%
    08:00 +27°C° 0 mm 1 mps 650 mmHg 40%
    09:00 +29°C° 0 mm 2 mps 650 mmHg 38%
    10:00 +30°C° 0 mm 2 mps 650 mmHg 36%
    11:00 +33°C° 0 mm 3 mps 650 mmHg 34%
    12:00 +33°C° 0.6 mm 3 mps 650 mmHg 35%
    13:00 +33°C° 0.6 mm 4 mps 649 mmHg 37%
    14:00 +33°C° 0.6 mm 4 mps 649 mmHg 38%
    15:00 +32°C° 0.8 mm 4 mps 649 mmHg 43%
    16:00 +30°C° 0.8 mm 4 mps 648 mmHg 47%
    17:00 +29°C° 0.8 mm 4 mps 648 mmHg 52%
    18:00 +27°C° 0.9 mm 3 mps 648 mmHg 60%
    19:00 +25°C° 0.9 mm 2 mps 649 mmHg 69%
    20:00 +23°C° 0.9 mm 1 mps 649 mmHg 78%
    21:00 +23°C° 0.2 mm 1 mps 650 mmHg 78%
    22:00 +23°C° 0.2 mm 1 mps 650 mmHg 78%
    23:00 +22°C° 0.2 mm 1 mps 651 mmHg 77%
    Show more